PCSAT (NO-44) (26931 NORAD) Tracking and Keplerian Element Data

This shows tracking and keplerian element data for the satellite.

Feedback or suggestion? Click here.




ElementValue
Catalog26931
NamePCSAT (NO-44)
Epoch Orbit5372
Epoch Day339.94662954
Epoch Year2021
RAAN197.8417
Inclination67.0501
Eccentricity0.0006
Argument of Perigee279.6484
Mean Anonmoly80.3939
Mean Motion14.30646721
Decay Rate1.2E-07
L11 26931U 01043C 21339.94662954 .00000012 00000+0 36333-4 0 9996
L22 26931 67.0501 197.8417 0006000 279.6484 80.3939 14.30646721 53728

Live tracking and technical data element details for PCSAT (NO-44) (NORAD 26931). PCSAT (NO-44) can be tracked NOW for your location showing map with azimuth and elevation plus other details from your city location.

Track the satellite on the map from your city or location and see movement details for azimuth, elevation, latitude, longitude, range, height, and movement on the map or in text.







IsCatalogInMostPopularTable: catalog: 26931, numindb: 1165
Update: records affected: 1



GetName: 26931 PCSAT (NO-44)

Hit Count: updated at: Wed, 08 Dec 2021 15:54:52 GMT